This is the latest recevied weather packets stored in our database for station/object DN9EM-1. If no packets are shown the sender has not sent any weather packets the latest 10 day(s).
| Time | Temp. | Humidity | Pressure | Rain* | Wind** | Luminosity | Snow |
|---|---|---|---|---|---|---|---|
| 1777817723 | 25° C | 50% | 1010 hPa | 0 mm | - | - | - |
| 1777817121 | 24.44° C | 52% | 1010.2 hPa | 0 mm | - | - | - |
| 1777816518 | 25° C | 54% | 1010.5 hPa | 0 mm | - | - | - |
| 1777815916 | 24.44° C | 54% | 1010.7 hPa | 0 mm | - | - | - |
| 1777815374 | 24.44° C | 54% | 1010.9 hPa | 0 mm | - | - | - |
| 1777814771 | 24.44° C | 53% | 1011 hPa | 0 mm | - | - | - |
| 1777814168 | 25° C | 53% | 1011.1 hPa | 0 mm | - | - | - |
| 1777813566 | 25° C | 52% | 1011.3 hPa | 0 mm | - | - | - |
| 1777812963 | 24.44° C | 53% | 1011.4 hPa | 0 mm | - | - | - |
| 1777812361 | 25° C | 53% | 1011.6 hPa | 0 mm | - | - | - |
| 1777811758 | 24.44° C | 54% | 1011.7 hPa | 0 mm | - | - | - |
| 1777811156 | 25° C | 54% | 1011.8 hPa | 0 mm | - | - | - |
| 1777810553 | 24.44° C | 54% | 1011.9 hPa | 0 mm | - | - | - |
| 1777809950 | 23.89° C | 54% | 1012 hPa | 0 mm | - | - | - |
| 1777809348 | 24.44° C | 54% | 1012.1 hPa | 0 mm | - | - | - |
| 1777808745 | 24.44° C | 53% | 1012.1 hPa | 0 mm | - | - | - |
| 1777808143 | 25° C | 53% | 1012.3 hPa | 0 mm | - | - | - |
| 1777807540 | 24.44° C | 53% | 1012.4 hPa | 0 mm | - | - | - |
| 1777806938 | 23.89° C | 54% | 1012.5 hPa | 0 mm | - | - | - |
| 1777806335 | 24.44° C | 51% | 1012.7 hPa | 0 mm | - | - | - |
| 1777805733 | 23.33° C | 55% | 1012.8 hPa | 0 mm | - | - | - |
| 1777805130 | 23.89° C | 53% | 1012.7 hPa | 0 mm | - | - | - |
| 1777804527 | 23.33° C | 56% | 1012.9 hPa | 0 mm | - | - | - |
| 1777803924 | 23.33° C | 55% | 1013 hPa | 0 mm | - | - | - |
| 1777803322 | 22.78° C | 58% | 1013 hPa | 0 mm | - | - | - |
* Rain latest hour (hover to see other rain measurements)
** Current wind speed in m/s (hover to see current wind gust speed)